EW5043 Weather Reports


time (UTC)temp
F
wind
direction
speed
knots
gust
knots
rain 1hr
in
rain 24hr
in
rain mn
in
humidity
%
barometer
mb
20260906103101 66 19 5.2 0.0 0.00 0.00 0.00 100 1014.6
20260906101549 67 77 5.2 0.0 0.00 0.00 0.00 100 1014.4
20260906100050 67 67 5.2 0.0 0.00 0.00 0.00 100 1014.2
20260906094544 68 64 7.8 0.0 0.00 0.00 0.00 100 1014.0
20260906093032 68 52 8.7 0.0 0.00 0.00 0.00 100 1013.8
20260906091522 69 58 7.0 0.0 0.00 0.00 0.00 100 1013.5
20260906090105 69 58 6.1 0.0 0.00 0.00 0.00 100 1013.3
20260906084655 69 53 5.2 0.0 0.00 0.00 0.00 100 1013.2
20260906083147 69 46 5.2 0.0 0.00 0.00 0.00 100 1013.1
20260906081538 69 47 7.0 0.0 0.00 0.00 0.00 100 1013.1
20260906080128 69 22 5.2 0.0 0.00 0.00 0.00 100 1013.0
20260906074520 69 40 5.2 0.0 0.00 0.00 0.00 100 1013.0
20260906073009 69 74 5.2 0.0 0.00 0.00 0.00 100 1012.9
20260906071601 68 55 1.7 0.0 0.00 0.00 0.00 100 1012.9
20260906070153 67 65 0.0 0.0 0.00 0.00 0.00 100 1012.8
20260906064542 67 65 0.0 0.0 0.00 0.00 0.00 100 1012.8
20260906063038 68 65 0.0 0.0 0.00 0.00 0.00 100 1013.0
20260906061525 68 65 0.0 0.0 0.00 0.00 0.00 100 1012.8
20260906060120 69 65 0.9 0.0 0.00 0.00 0.00 100 1012.9
20260906054505 69 65 0.0 0.0 0.00 0.00 0.00 100 1012.9
20260906053057 70 65 2.6 0.0 0.00 0.00 0.00 100 1013.0
20260906051548 71 53 4.3 0.0 0.00 0.00 0.00 100 1012.8
20260906050040 70 84 0.0 0.0 0.00 0.00 0.00 100 1012.7
20260906044530 70 56 0.0 0.0 0.00 0.00 0.00 100 1012.7
20260906043020 70 56 0.0 0.0 0.00 0.00 0.00 100 1012.7
20260906041509 70 55 0.0 0.0 0.00 0.00 0.00 100 1012.8
20260906040106 70 55 0.0 0.0 0.00 0.00 0.00 100 1012.8
20260906034652 70 54 0.0 0.0 0.00 0.00 0.00 100 1012.8
20260906033144 70 55 0.0 0.0 0.00 0.00 0.00 100 1012.8
20260906031600 70 62 0.0 0.0 0.00 0.00 0.00 100 1012.6
20260906030127 70 101 1.7 0.0 0.00 0.00 0.00 100 1012.5
20260906024535 72 71 6.1 0.0 0.00 0.00 0.00 100 1012.3
20260906023108 72 5 8.7 0.0 0.00 0.00 0.00 100 1012.3
20260906021604 72 5 10.4 0.0 0.00 0.00 0.00 100 1012.4
20260906020049 72 342 9.6 0.0 0.00 0.00 0.00 100 1012.3
20260906014539 72 355 8.7 0.0 0.00 0.00 0.00 100 1012.1
20260906013032 72 355 9.6 0.0 0.00 0.00 0.00 100 1012.1
20260906011522 72 5 9.6 0.0 0.00 0.00 0.00 100 1012.1
20260906010115 72 360 8.7 0.0 0.00 0.00 0.00 100 1012.1
20260906004504 72 347 7.8 0.0 0.00 0.00 0.00 100 1012.0
20260906003055 71 355 7.8 0.0 0.00 0.00 0.00 100 1011.9
20260906001648 71 343 7.8 0.0 0.00 0.00 0.00 100 1012.0
20260906000041 71 349 5.2 0.0 0.00 0.00 0.00 100 1012.0
20260905234626 71 346 3.5 0.0 0.00 0.00 0.00 100 1012.0
20260905233117 71 342 4.3 0.0 0.00 0.00 0.00 100 1011.9
20260905231507 71 334 3.5 0.0 0.00 0.00 0.00 100 1012.0
20260905230201 71 331 3.5 0.0 0.00 0.00 0.00 100 1012.1
20260905224550 71 339 3.5 0.0 0.00 0.00 0.00 100 1012.0
20260905223040 71 349 4.3 0.0 0.00 0.00 0.00 100 1012.0
20260905221632 71 5 6.1 0.0 0.00 0.00 0.00 100 1012.1
20260905220023 71 355 6.1 0.0 0.00 0.00 0.00 100 1011.8
20260905214511 71 9 6.1 0.0 0.00 0.00 0.00 100 1011.8
20260905213003 71 360 6.1 0.0 0.00 0.00 0.00 100 1011.7
20260905211607 71 346 7.8 0.0 0.00 0.00 0.00 100 1011.3
20260905210058 71 360 7.8 0.0 0.00 0.00 0.00 100 1011.4
20260905204542 71 360 7.8 0.0 0.00 0.00 0.00 100 1011.4
20260905203131 71 360 7.0 0.0 0.00 0.00 0.00 100 1011.5
20260905201530 71 53 5.2 0.0 0.00 0.00 0.00 100 1011.7
20260905200010 71 355 5.2 0.0 0.00 0.00 0.00 100 1011.7
20260905194607 71 14 5.2 0.0 0.00 0.00 0.00 100 1011.7
20260905193053 71 21 4.3 0.0 0.00 0.00 0.00 100 1011.8
20260905191544 71 355 3.5 0.0 0.00 0.00 0.00 100 1011.7
20260905190035 71 39 4.3 0.0 0.00 0.00 0.00 100 1011.7
20260905184526 71 23 3.5 0.0 0.00 0.00 0.00 100 1011.7
20260905183028 71 32 2.6 0.0 0.00 0.00 0.00 100 1011.7
20260905181508 71 34 3.5 0.0 0.00 0.00 0.00 100 1011.6
20260905180104 70 24 3.5 0.0 0.00 0.00 0.00 100 1011.8
20260905174554 70 21 3.5 0.0 0.00 0.00 0.00 100 1011.7
20260905173056 71 355 3.5 0.0 0.00 0.00 0.00 100 1011.6
20260905171536 70 16 4.3 0.0 0.00 0.00 0.00 100 1011.6
20260905170025 70 22 4.3 0.0 0.00 0.00 0.00 100 1011.7
20260905164615 70 350 5.2 0.0 0.00 0.00 0.00 100 1011.7
20260905163005 70 360 3.5 0.0 0.00 0.00 0.00 100 1011.8
20260905161556 70 5 3.5 0.0 0.00 0.00 0.00 100 1011.8
20260905160047 70 360 3.5 0.0 0.00 0.00 0.00 100 1011.8
20260905154538 70 32 3.5 0.0 0.00 0.00 0.00 100 1011.8
20260905153030 70 24 3.5 0.0 0.00 0.00 0.00 100 1011.8
20260905151521 70 40 3.5 0.0 0.00 0.00 0.00 100 1011.7
20260905150013 70 35 4.3 0.0 0.00 0.00 0.00 100 1011.7
20260905144503 70 30 3.5 0.0 0.00 0.00 0.00 100 1011.8
20260905143154 70 34 4.3 0.0 0.00 0.00 0.00 100 1011.7
20260905141545 70 355 3.5 0.0 0.00 0.00 0.00 100 1011.7
20260905140036 70 360 4.3 0.0 0.00 0.00 0.00 100 1011.6
20260905131509 69 43 3.5 0.0 0.00 0.00 0.00 100 1011.7
20260905124551 69 46 4.3 0.0 0.00 0.00 0.00 100 1011.8
20260905123140 69 45 5.2 0.0 0.00 0.00 0.00 100 1011.7
20260905121532 69 36 4.3 0.0 0.00 0.00 0.00 100 1011.5
20260905120023 69 29 4.3 0.0 0.00 0.00 0.00 100 1011.3
20260905114613 69 15 3.5 0.0 0.00 0.00 0.00 100 1011.2
20260905113104 69 355 4.3 0.0 0.00 0.00 0.00 100 1011.1
20260905111656 69 17 5.2 0.0 0.00 0.00 0.00 100 1011.2
20260905110146 69 36 3.5 0.0 0.00 0.00 0.00 100 1011.0
20260905104537 69 21 4.3 0.0 0.00 0.00 0.00 100 1010.7